Nebraska City, NE

12:21 AM CST on February 26, 2017 (GMT -0600)
Nebraska City Municipal

Weather History for KAFK - July, 2013

Change the Weather History Date:

Sunday, July 7, 2013

  Actual Average (KSDA) Record (KSDA)
Temperature  
Mean Temperature 82 °F -  
Max Temperature 92 °F 87 °F 100 °F (1980)
Min Temperature 71 °F 65 °F 51 °F (2004)
Cooling Degree Days 16    
Growing Degree Days 32 (Base 50)    
Moisture  
Dew Point 65 °F    
Average Humidity 57    
Maximum Humidity 77    
Minimum Humidity 40    
Precipitation  
Precipitation 0.09 in - - ()
Sea Level Pressure  
Sea Level Pressure 29.89 in    
Wind  
Wind Speed 12 mph (SSW)    
Max Wind Speed 20 mph    
Max Gust Speed 25 mph    
Visibility 10 miles    
Events Rain    
Averages and records for this station are not official NWS values.
T = Trace of Precipitation, MM = Missing Value Source: NWS Daily Summary

Daily Weather History Graph

Daily Weather History Graph

Search for Another Location

Airport or City:

Trip Planner

Search our weather history database for the weather conditions in past years. The results will help you decide how hot, cold, wet, or windy it might be!

Date:

Astronomy

Jul. 07, 2013 Rise Set
Actual Time 5:59 AM CDT 8:56 PM CDT
Civil Twilight 5:27 AM CDT 9:29 PM CDT
Nautical Twilight 4:45 AM CDT 10:10 PM CDT
Astronomical Twilight 3:57 AM CDT 10:59 PM CDT
Moon 5:37 AM CDT (7/7) 8:20 PM CDT (7/7)
Length of Visible Light 16h 02m
Length of Day
14h 56m
Waning Crescent, 0% of the Moon is Illuminated
Jul 7
Waning Crescent
Jul 8
New
Jul 15
First Quarter
Jul 22
Full
Jul 29
Last Quarter

Hourly Weather History & Observations

Time (CDT) Temp. Heat Index Dew Point Humidity Pressure Visibility Wind Dir Wind Speed Gust Speed Precip Events Conditions
12:15 AM 72.7 °F - 64.9 °F 77% 29.89 in 10.0 mi South 9.2 mph - N/A   Scattered Clouds
12:35 AM 73.4 °F - 64.8 °F 74% 29.89 in 10.0 mi South 10.4 mph - N/A   Mostly Cloudy
12:55 AM 74.1 °F - 64.0 °F 71% 29.89 in 10.0 mi South 11.5 mph - N/A   Overcast
1:15 AM 75.2 °F - 62.6 °F 65% 29.89 in 10.0 mi South 12.7 mph - N/A   Overcast
1:35 AM 75.6 °F - 61.2 °F 61% 29.89 in 10.0 mi South 11.5 mph - N/A   Overcast
1:55 AM 75.4 °F - 60.8 °F 60% 29.89 in 10.0 mi South 12.7 mph - N/A   Overcast
2:15 AM 75.6 °F - 60.4 °F 59% 29.89 in 10.0 mi South 11.5 mph - N/A   Overcast
2:35 AM 75.4 °F - 60.3 °F 59% 29.89 in 10.0 mi South 12.7 mph 16.1 mph N/A   Mostly Cloudy
2:55 AM 72.7 °F - 61.9 °F 69% 29.89 in 10.0 mi South 12.7 mph - 0.09 in Rain Light Rain
3:15 AM 73.0 °F - 61.3 °F 67% 29.89 in 10.0 mi South 11.5 mph - N/A   Mostly Cloudy
3:35 AM 73.4 °F - 61.0 °F 65% 29.90 in 10.0 mi SE 8.1 mph - N/A   Overcast
3:55 AM 73.4 °F - 61.7 °F 67% 29.90 in 10.0 mi SSE 6.9 mph - N/A   Overcast
4:15 AM 73.4 °F - 61.7 °F 67% 29.91 in 10.0 mi SSE 5.8 mph - N/A   Overcast
4:35 AM 72.5 °F - 62.1 °F 70% 29.91 in 10.0 mi SSE 5.8 mph - N/A   Mostly Cloudy
4:55 AM 72.9 °F - 61.7 °F 68% 29.90 in 10.0 mi SSE 10.4 mph - N/A   Mostly Cloudy
5:15 AM 72.3 °F - 62.1 °F 70% 29.89 in 10.0 mi South 12.7 mph 17.3 mph N/A   Overcast
5:35 AM 72.9 °F - 61.9 °F 68% 29.89 in 10.0 mi South 15.0 mph - N/A   Scattered Clouds
5:55 AM 71.6 °F - 62.6 °F 73% 29.89 in 10.0 mi South 15.0 mph - N/A   Clear
6:15 AM 71.8 °F - 62.6 °F 73% 29.89 in 10.0 mi South 13.8 mph - N/A   Clear
6:35 AM 72.5 °F - 62.8 °F 71% 29.89 in 10.0 mi South 15.0 mph - N/A   Clear
6:55 AM 72.5 °F - 63.1 °F 72% 29.89 in 10.0 mi South 11.5 mph - N/A   Clear
7:15 AM 72.5 °F - 63.7 °F 74% 29.89 in 10.0 mi South 12.7 mph - N/A   Clear
7:35 AM 73.4 °F - 63.9 °F 72% 29.89 in 10.0 mi South 13.8 mph 17.3 mph N/A   Clear
7:55 AM 74.7 °F - 63.7 °F 69% 29.89 in 10.0 mi SSW 15.0 mph - N/A   Clear
8:15 AM 76.1 °F - 64.0 °F 66% 29.89 in 10.0 mi SSW 12.7 mph 19.6 mph N/A   Clear
8:35 AM 77.2 °F - 64.6 °F 65% 29.89 in 10.0 mi SSW 16.1 mph - N/A   Clear
8:55 AM 78.6 °F - 64.9 °F 63% 29.89 in 10.0 mi SSW 15.0 mph 21.9 mph N/A   Clear
9:15 AM 80.1 °F 82.0 °F 65.5 °F 61% 29.89 in 10.0 mi SSW 19.6 mph 24.2 mph N/A   Clear
9:35 AM 80.8 °F 82.5 °F 64.6 °F 58% 29.88 in 10.0 mi SSW 16.1 mph 21.9 mph N/A   Clear
9:55 AM 81.7 °F 83.3 °F 64.8 °F 56% 29.89 in 10.0 mi SSW 17.3 mph 21.9 mph N/A   Clear
10:15 AM 82.6 °F 84.3 °F 64.8 °F 55% 29.89 in 10.0 mi SSW 18.4 mph 25.3 mph N/A   Clear
10:35 AM 83.1 °F 84.8 °F 64.8 °F 54% 29.89 in 10.0 mi SW 18.4 mph 25.3 mph N/A   Clear
10:55 AM 84.4 °F 86.1 °F 65.1 °F 52% 29.89 in 10.0 mi SW 17.3 mph 23.0 mph N/A   Clear
11:15 AM 86.0 °F 87.9 °F 65.3 °F 50% 29.89 in 10.0 mi SW 15.0 mph 25.3 mph N/A   Clear
11:35 AM 86.2 °F 87.6 °F 64.2 °F 48% 29.89 in 10.0 mi SW 17.3 mph - N/A   Clear
11:55 AM 86.7 °F 88.1 °F 64.0 °F 47% 29.89 in 10.0 mi SW 17.3 mph 25.3 mph N/A   Clear
12:15 PM 86.2 °F 87.6 °F 64.4 °F 48% 29.89 in 10.0 mi SW 13.8 mph 20.7 mph N/A   Clear
12:35 PM 87.4 °F 88.8 °F 64.0 °F 46% 29.88 in 10.0 mi SW 15.0 mph - N/A   Clear
12:55 PM 88.3 °F 89.5 °F 63.9 °F 44% 29.88 in 10.0 mi SW 17.3 mph 20.7 mph N/A   Clear
1:15 PM 89.2 °F 91.3 °F 65.3 °F 45% 29.88 in 10.0 mi SW 12.7 mph - N/A   Clear
1:35 PM 88.7 °F 90.4 °F 64.9 °F 45% 29.88 in 10.0 mi SW 11.5 mph - N/A   Scattered Clouds
1:55 PM 90.0 °F 91.7 °F 64.8 °F 43% 29.88 in 10.0 mi SW 13.8 mph 19.6 mph N/A   Scattered Clouds
2:15 PM 91.0 °F 93.4 °F 65.5 °F 43% 29.88 in 10.0 mi SSW 15.0 mph 18.4 mph N/A   Clear
2:35 PM 90.7 °F 92.1 °F 64.2 °F 41% 29.89 in 10.0 mi SW 12.7 mph 19.6 mph N/A   Clear
2:55 PM 91.4 °F 92.8 °F 64.2 °F 40% 29.88 in 10.0 mi SW 11.5 mph - N/A   Clear
3:15 PM 91.8 °F 93.8 °F 65.1 °F 41% 29.88 in 10.0 mi SW 13.8 mph 20.7 mph N/A   Clear
3:35 PM 92.3 °F 94.7 °F 65.1 °F 41% 29.88 in 10.0 mi SSW 12.7 mph 18.4 mph N/A   Clear
3:55 PM 91.9 °F 95.0 °F 66.2 °F 43% 29.88 in 10.0 mi South 12.7 mph - N/A   Clear
4:15 PM 92.3 °F 95.6 °F 66.7 °F 43% 29.87 in 10.0 mi South 10.4 mph 17.3 mph N/A   Clear
4:35 PM 92.5 °F 95.9 °F 67.3 °F 43% 29.87 in 10.0 mi South 11.5 mph - N/A   Clear
4:55 PM 92.3 °F 95.1 °F 66.4 °F 42% 29.87 in 10.0 mi South 13.8 mph 18.4 mph N/A   Clear
5:15 PM 92.5 °F 95.4 °F 66.2 °F 42% 29.87 in 10.0 mi South 12.7 mph 17.3 mph N/A   Clear
5:35 PM 92.5 °F 95.9 °F 66.9 °F 43% 29.87 in 10.0 mi SSW 10.4 mph - N/A   Clear
5:55 PM 92.5 °F 95.9 °F 67.1 °F 43% 29.86 in 10.0 mi SSW 11.5 mph - N/A   Clear
6:15 PM 92.3 °F 95.1 °F 66.4 °F 42% 29.86 in 10.0 mi SSW 10.4 mph - N/A   Clear
6:35 PM 91.4 °F 94.0 °F 66.0 °F 43% 29.85 in 10.0 mi SSW 11.5 mph - N/A   Clear
6:55 PM 90.7 °F 94.5 °F 67.8 °F 47% 29.85 in 10.0 mi SSW 9.2 mph - N/A   Clear
7:15 PM 90.0 °F 92.8 °F 66.6 °F 46% 29.85 in 10.0 mi South 9.2 mph - N/A   Clear
7:35 PM 88.7 °F 91.5 °F 66.9 °F 48% 29.85 in 10.0 mi SSW 11.5 mph - N/A   Clear
7:55 PM 87.8 °F 90.4 °F 66.7 °F 49% 29.84 in 10.0 mi South 11.5 mph - N/A   Clear
8:15 PM 86.7 °F 89.3 °F 66.6 °F 51% 29.85 in 10.0 mi South 11.5 mph - N/A   Clear
8:35 PM 86.2 °F 88.4 °F 66.4 °F 51% 29.86 in 10.0 mi South 10.4 mph - N/A   Clear
8:55 PM 85.1 °F 87.9 °F 67.1 °F 55% 29.87 in 10.0 mi South 8.1 mph - N/A   Clear
9:15 PM 83.7 °F 86.2 °F 67.1 °F 57% 29.88 in 10.0 mi South 10.4 mph - N/A   Clear
9:35 PM 82.9 °F 85.6 °F 67.5 °F 59% 29.89 in 10.0 mi South 8.1 mph - N/A   Clear
9:55 PM 82.0 °F 84.9 °F 68.0 °F 62% 29.90 in 10.0 mi South 6.9 mph - N/A   Clear
10:15 PM 81.9 °F 84.8 °F 68.0 °F 63% 29.91 in 10.0 mi South 8.1 mph - N/A   Clear
10:35 PM 81.5 °F 84.4 °F 68.2 °F 64% 29.91 in 10.0 mi South 9.2 mph - N/A   Clear
10:55 PM 81.0 °F 83.8 °F 68.2 °F 65% 29.92 in 10.0 mi South 8.1 mph - N/A   Clear
11:15 PM 79.9 °F - 68.4 °F 68% 29.92 in 10.0 mi South 5.8 mph - N/A   Clear
11:35 PM 79.0 °F - 68.4 °F 70% 29.93 in 10.0 mi South 5.8 mph - N/A   Clear
11:55 PM 79.0 °F - 68.2 °F 69% 29.93 in 10.0 mi South 8.1 mph - N/A   Scattered Clouds